Location: Unspecified
(38.7223°N, 0.0000°E)
Time: 14:10:33
(UTC+00:00)

OTV 5 (USA 277) - Visible Passes

Search period start: 24 June 2019 00:00
Search period end: 04 July 2019 00:00
Orbit: 280 x 298 km, 54.5° (Epoch: 21 June)

Date Brightness Start Highest point End Pass type
(mag) Time Alt. Az. Time Alt. Az. Time Alt. Az.
24 Jun ? 03:12:23 10° NW 03:14:51 72° NE 03:17:18 10° SE visible
24 Jun ? 21:00:33 10° NW 21:01:16 11° NNW 21:02:00 10° NNW visible
25 Jun ? 01:44:51 10° N 01:46:03 13° NNE 01:47:15 10° ENE visible
25 Jun ? 03:17:34 10° WNW 03:19:53 37° SW 03:22:12 10° SSE visible
